Вернуться в каталог

LAGEOS 2

АктивенНаукаMEO
NORAD 22195·PAYLOAD·🇮🇹 Italy

Запущен Oct 22, 1992 с Cape Canaveral Space Force Station

Loading…

Ближайшие Пролёты (ближайшие 24 часа)

TLE

СвежийSource: CelesTrak SupGP

Эпоха: Sep 14, 2026, 00:00 UTC

1 22195C 92070B   26257.00000000  .00000000  00000+0  00000+0 0  2574
2 22195  52.6439 210.5218 0138088 226.1857 218.8723  6.47293805    14

Отслеживайте LAGEOS 2 в реальном времени с AllMySat

Download on the App Store